THY6034 KIAH-MMSM

Flight info

Callsign THY6034
Flight time 1h 31m
Altitude 36000
Route RITAA7 WWREN DCT BRO DCT MAM UJ59 MAPIL/N0482F370 UJ59 TAM/N0486F360 UT163 VITOS VITOS2A
Aircraft B77L/H-SDE1E2E3FGHIJ2J3J4J5M1RWXY/LB1D1

Departure

Time 2026-04-24 01:38
Airport George Bush Intercontinental Airport (KIAH)

Arrival

Time 2026-04-24 03:09
Airport Felipe Ángeles International Airport (MMSM)
Time Latitude Longitude Altitude Speed Heading
2026-04-24 00:23 29.99295 -95.30951 102 ft 0 kts 181°
2026-04-24 01:14 29.99297 -95.30951 101 ft 1 kts 181°
2026-04-24 01:15 29.99307 -95.30951 101 ft 2 kts 181°
2026-04-24 01:15 29.99322 -95.30951 102 ft 2 kts 181°
2026-04-24 01:15 29.99337 -95.30951 102 ft 2 kts 168°
2026-04-24 01:15 29.99351 -95.30957 102 ft 2 kts 144°
2026-04-24 01:16 29.99362 -95.30969 102 ft 2 kts 124°
2026-04-24 01:16 29.99368 -95.30984 102 ft 2 kts 104°
2026-04-24 01:16 29.99370 -95.31001 102 ft 2 kts 87°
2026-04-24 01:16 29.99369 -95.31024 102 ft 2 kts 90°
2026-04-24 01:17 29.99369 -95.31042 102 ft 2 kts 91°
2026-04-24 01:17 29.99369 -95.31059 102 ft 2 kts 90°
2026-04-24 01:17 29.99369 -95.31076 102 ft 2 kts 90°
2026-04-24 01:17 29.99370 -95.31087 102 ft 2 kts 90°
2026-04-24 01:18 29.99370 -95.31110 102 ft 2 kts 90°
2026-04-24 01:18 29.99370 -95.31127 102 ft 2 kts 90°
2026-04-24 01:18 29.99370 -95.31145 102 ft 2 kts 90°
2026-04-24 01:18 29.99370 -95.31162 102 ft 2 kts 90°
2026-04-24 01:19 29.99370 -95.31179 102 ft 2 kts 90°
2026-04-24 01:19 29.99370 -95.31196 102 ft 2 kts 90°
2026-04-24 01:19 29.99370 -95.31213 103 ft 2 kts 90°
2026-04-24 01:19 29.99370 -95.31231 103 ft 2 kts 90°
2026-04-24 01:20 29.99370 -95.31248 103 ft 2 kts 90°
2026-04-24 01:20 29.99371 -95.31265 103 ft 2 kts 107°
2026-04-24 01:20 29.99378 -95.31280 103 ft 2 kts 132°
2026-04-24 01:20 29.99389 -95.31291 103 ft 2 kts 154°
2026-04-24 01:21 29.99403 -95.31296 103 ft 2 kts 176°
2026-04-24 01:21 29.99417 -95.31296 103 ft 2 kts 185°
2026-04-24 01:21 29.99425 -95.31295 103 ft 0 kts 181°
2026-04-24 01:21 29.99428 -95.31295 103 ft 0 kts 180°
2026-04-24 01:24 29.99427 -95.31295 103 ft 0 kts 180°
2026-04-24 01:25 29.99409 -95.31295 103 ft 4 kts 180°
2026-04-24 01:25 29.99368 -95.31295 102 ft 7 kts 180°
2026-04-24 01:25 29.99308 -95.31294 102 ft 9 kts 180°
2026-04-24 01:26 29.99234 -95.31294 102 ft 11 kts 180°
2026-04-24 01:26 29.99152 -95.31294 102 ft 10 kts 180°
2026-04-24 01:26 29.99098 -95.31310 102 ft 7 kts 225°
2026-04-24 01:26 29.99082 -95.31371 102 ft 9 kts 268°
2026-04-24 01:27 29.99081 -95.31451 102 ft 10 kts 270°
2026-04-24 01:27 29.99082 -95.31542 102 ft 12 kts 270°
2026-04-24 01:27 29.99082 -95.31643 103 ft 13 kts 270°
2026-04-24 01:27 29.99081 -95.31754 103 ft 14 kts 270°
2026-04-24 01:28 29.99081 -95.31870 103 ft 14 kts 270°
2026-04-24 01:28 29.99082 -95.31989 104 ft 15 kts 270°
2026-04-24 01:28 29.99082 -95.32114 104 ft 15 kts 270°
2026-04-24 01:28 29.99082 -95.32240 105 ft 16 kts 270°
2026-04-24 01:29 29.99082 -95.32369 105 ft 16 kts 270°
2026-04-24 01:29 29.99084 -95.32503 105 ft 16 kts 273°
2026-04-24 01:29 29.99091 -95.32637 106 ft 17 kts 270°
2026-04-24 01:29 29.99090 -95.32774 106 ft 17 kts 270°
2026-04-24 01:30 29.99089 -95.32916 106 ft 17 kts 270°
2026-04-24 01:30 29.99089 -95.33057 106 ft 17 kts 270°
2026-04-24 01:30 29.99089 -95.33198 106 ft 17 kts 270°
2026-04-24 01:30 29.99089 -95.33340 107 ft 17 kts 270°
2026-04-24 01:31 29.99088 -95.33481 107 ft 17 kts 270°
2026-04-24 01:31 29.99088 -95.33622 107 ft 17 kts 270°
2026-04-24 01:31 29.99089 -95.33765 107 ft 17 kts 270°
2026-04-24 01:31 29.99088 -95.33909 107 ft 17 kts 269°
2026-04-24 01:32 29.99088 -95.34052 107 ft 18 kts 270°
2026-04-24 01:32 29.99089 -95.34199 107 ft 18 kts 270°
2026-04-24 01:32 29.99089 -95.34345 107 ft 18 kts 270°
2026-04-24 01:32 29.99089 -95.34495 107 ft 18 kts 270°
2026-04-24 01:33 29.99088 -95.34644 107 ft 18 kts 270°
2026-04-24 01:33 29.99087 -95.34794 107 ft 18 kts 270°
2026-04-24 01:33 29.99087 -95.34946 107 ft 18 kts 270°
2026-04-24 01:33 29.99087 -95.35098 107 ft 18 kts 271°
2026-04-24 01:34 29.99088 -95.35249 106 ft 18 kts 270°
2026-04-24 01:34 29.99088 -95.35387 106 ft 15 kts 270°
2026-04-24 01:34 29.99080 -95.35458 107 ft 8 kts 239°
2026-04-24 01:34 29.99030 -95.35484 106 ft 8 kts 185°
2026-04-24 01:35 29.98972 -95.35484 106 ft 8 kts 179°
2026-04-24 01:35 29.98918 -95.35505 106 ft 8 kts 218°
2026-04-24 01:35 29.98883 -95.35559 106 ft 8 kts 240°
2026-04-24 01:35 29.98854 -95.35618 106 ft 8 kts 241°
2026-04-24 01:36 29.98829 -95.35674 106 ft 7 kts 242°
2026-04-24 01:36 29.98802 -95.35731 106 ft 8 kts 242°
2026-04-24 01:36 29.98778 -95.35769 106 ft 4 kts 210°
2026-04-24 01:36 29.98747 -95.35766 106 ft 4 kts 156°
2026-04-24 01:37 29.98719 -95.35747 106 ft 6 kts 150°
2026-04-24 01:37 29.98611 -95.35679 106 ft 44 kts 152°
2026-04-24 01:37 29.98118 -95.35379 105 ft 114 kts 152°
2026-04-24 01:37 29.97218 -95.34826 103 ft 174 kts 152°
2026-04-24 01:38 29.96083 -95.34113 564 ft 190 kts 149°
2026-04-24 01:38 29.95064 -95.33217 1481 ft 187 kts 133°
2026-04-24 01:38 29.94252 -95.32063 2211 ft 187 kts 130°
2026-04-24 01:38 29.93437 -95.30843 2593 ft 204 kts 130°
2026-04-24 01:39 29.92545 -95.29494 2979 ft 223 kts 130°
2026-04-24 01:39 29.91565 -95.28013 3425 ft 241 kts 130°
2026-04-24 01:39 29.90513 -95.26420 3891 ft 256 kts 129°
2026-04-24 01:39 29.89424 -95.24766 4554 ft 263 kts 129°
2026-04-24 01:40 29.88312 -95.23055 5240 ft 269 kts 128°
2026-04-24 01:40 29.87249 -95.21338 6082 ft 269 kts 127°
2026-04-24 01:40 29.86154 -95.19568 6694 ft 277 kts 128°
2026-04-24 01:40 29.85011 -95.17730 7350 ft 282 kts 127°
2026-04-24 01:41 29.83861 -95.15883 7967 ft 288 kts 127°
2026-04-24 01:41 29.82681 -95.14027 8578 ft 293 kts 132°
2026-04-24 01:41 29.81183 -95.12423 9178 ft 296 kts 143°
2026-04-24 01:41 29.79541 -95.10973 9765 ft 302 kts 144°
2026-04-24 01:42 29.77787 -95.09609 10312 ft 308 kts 154°
2026-04-24 01:42 29.75744 -95.08679 10580 ft 323 kts 168°
2026-04-24 01:42 29.73484 -95.08354 10851 ft 339 kts 183°
2026-04-24 01:42 29.71087 -95.08740 11084 ft 355 kts 199°
2026-04-24 01:43 29.68775 -95.09929 11347 ft 369 kts 215°
2026-04-24 01:43 29.66802 -95.11827 11677 ft 382 kts 229°
2026-04-24 01:43 29.65104 -95.14217 12268 ft 389 kts 234°
2026-04-24 01:43 29.63426 -95.16682 13034 ft 393 kts 235°
2026-04-24 01:44 29.61710 -95.19139 13839 ft 399 kts 233°
2026-04-24 01:44 29.59873 -95.21514 14740 ft 403 kts 228°
2026-04-24 01:44 29.57731 -95.23589 15686 ft 409 kts 218°
2026-04-24 01:44 29.55251 -95.25262 16561 ft 416 kts 211°
2026-04-24 01:45 29.52671 -95.26766 17382 ft 421 kts 210°
2026-04-24 01:45 29.50055 -95.28264 18215 ft 425 kts 210°
2026-04-24 01:45 29.47384 -95.29782 19016 ft 430 kts 210°
2026-04-24 01:45 29.44681 -95.31313 19799 ft 435 kts 210°
2026-04-24 01:46 29.41985 -95.32834 20544 ft 440 kts 210°
2026-04-24 01:46 29.39204 -95.34399 21326 ft 445 kts 210°
2026-04-24 01:46 29.36421 -95.35963 22014 ft 450 kts 211°
2026-04-24 01:46 29.33612 -95.37539 22702 ft 455 kts 211°
2026-04-24 01:47 29.30762 -95.39136 23378 ft 460 kts 211°
2026-04-24 01:47 29.27880 -95.40749 24047 ft 464 kts 211°
2026-04-24 01:47 29.24943 -95.42392 24710 ft 469 kts 212°
2026-04-24 01:47 29.22017 -95.44028 25317 ft 474 kts 212°
2026-04-24 01:48 29.19019 -95.45702 25924 ft 480 kts 212°
2026-04-24 01:48 29.15999 -95.47387 26615 ft 484 kts 212°
2026-04-24 01:48 29.12982 -95.49068 27261 ft 488 kts 212°
2026-04-24 01:48 29.09925 -95.50772 27874 ft 494 kts 213°
2026-04-24 01:49 29.06814 -95.52505 28474 ft 499 kts 213°
2026-04-24 01:49 29.03702 -95.54237 29109 ft 503 kts 213°
2026-04-24 01:49 29.00510 -95.56010 29821 ft 506 kts 213°
2026-04-24 01:49 28.97370 -95.57752 30722 ft 503 kts 214°
2026-04-24 01:50 28.94238 -95.59487 31754 ft 497 kts 214°
2026-04-24 01:50 28.91143 -95.61201 32576 ft 494 kts 214°
2026-04-24 01:50 28.88111 -95.62938 33199 ft 492 kts 217°
2026-04-24 01:50 28.85092 -95.64845 33678 ft 495 kts 218°
2026-04-24 01:51 28.82042 -95.66791 34338 ft 496 kts 218°
2026-04-24 01:51 28.79028 -95.68703 35262 ft 491 kts 218°
2026-04-24 01:51 28.76049 -95.70588 35838 ft 489 kts 218°
2026-04-24 01:52 28.70091 -95.74348 35875 ft 486 kts 218°
2026-04-24 01:52 28.64176 -95.78065 35881 ft 484 kts 218°
2026-04-24 01:53 28.58258 -95.81780 35892 ft 487 kts 218°
2026-04-24 01:53 28.52361 -95.85468 35884 ft 482 kts 218°
2026-04-24 01:54 28.46442 -95.89168 35892 ft 487 kts 218°
2026-04-24 01:54 28.40529 -95.92855 35885 ft 482 kts 218°
2026-04-24 01:55 28.34637 -95.96527 35884 ft 486 kts 218°
2026-04-24 01:55 28.28722 -96.00206 35882 ft 484 kts 218°
2026-04-24 01:56 28.22807 -96.03880 35880 ft 484 kts 218°
2026-04-24 01:56 28.16894 -96.07550 35883 ft 484 kts 218°
2026-04-24 01:57 28.10945 -96.11209 35881 ft 487 kts 217°
2026-04-24 01:57 28.04937 -96.14748 35881 ft 489 kts 217°
2026-04-24 01:58 27.98928 -96.18283 35875 ft 488 kts 217°
2026-04-24 01:58 27.92863 -96.21851 35880 ft 489 kts 217°
2026-04-24 01:59 27.86861 -96.25379 35855 ft 485 kts 217°
2026-04-24 01:59 27.80799 -96.28943 35859 ft 489 kts 217°
2026-04-24 02:00 27.74811 -96.32457 35859 ft 487 kts 217°
2026-04-24 02:00 27.68785 -96.35990 35860 ft 487 kts 217°
2026-04-24 02:01 27.62736 -96.39535 35861 ft 492 kts 217°
2026-04-24 02:01 27.56690 -96.43069 35861 ft 489 kts 217°
2026-04-24 02:02 27.50639 -96.46603 35863 ft 488 kts 216°
2026-04-24 02:02 27.44596 -96.50131 35855 ft 490 kts 217°
2026-04-24 02:03 27.35557 -96.55394 35854 ft 486 kts 217°
2026-04-24 02:03 27.29497 -96.58922 35855 ft 492 kts 216°
2026-04-24 02:04 27.23452 -96.62431 35854 ft 485 kts 216°
2026-04-24 02:04 27.17407 -96.65940 35868 ft 491 kts 216°
2026-04-24 02:05 27.11366 -96.69440 35869 ft 489 kts 216°
2026-04-24 02:05 27.05312 -96.72945 35861 ft 491 kts 216°
2026-04-24 02:06 26.99269 -96.76437 35857 ft 489 kts 216°
2026-04-24 02:06 26.93204 -96.79939 35858 ft 491 kts 216°
2026-04-24 02:07 26.87163 -96.83422 35841 ft 487 kts 216°
2026-04-24 02:07 26.81090 -96.86923 35843 ft 492 kts 216°
2026-04-24 02:08 26.75005 -96.90421 35842 ft 489 kts 216°
2026-04-24 02:08 26.68955 -96.93899 35844 ft 492 kts 216°
2026-04-24 02:09 26.62892 -96.97377 35843 ft 491 kts 216°
2026-04-24 02:09 26.56824 -97.00855 35839 ft 489 kts 216°
2026-04-24 02:10 26.50759 -97.04329 35841 ft 492 kts 215°
2026-04-24 02:10 26.44644 -97.07825 35840 ft 491 kts 216°
2026-04-24 02:11 26.38589 -97.11284 35836 ft 491 kts 215°
2026-04-24 02:11 26.32528 -97.14741 35840 ft 490 kts 215°
2026-04-24 02:12 26.26422 -97.18220 35841 ft 491 kts 215°
2026-04-24 02:12 26.20355 -97.21673 35840 ft 491 kts 216°
2026-04-24 02:13 26.14244 -97.25147 35841 ft 490 kts 215°
2026-04-24 02:13 26.08178 -97.28592 35844 ft 493 kts 215°
2026-04-24 02:14 26.02088 -97.32044 35839 ft 489 kts 215°
2026-04-24 02:14 25.95995 -97.35497 35842 ft 492 kts 215°
2026-04-24 02:15 25.90303 -97.39549 35842 ft 477 kts 229°
2026-04-24 02:15 25.85312 -97.44382 35826 ft 475 kts 230°
2026-04-24 02:16 25.80251 -97.49036 35822 ft 479 kts 222°
2026-04-24 02:16 25.77282 -97.50908 35823 ft 491 kts 213°
2026-04-24 02:16 25.74067 -97.52264 35819 ft 501 kts 204°
2026-04-24 02:17 25.70638 -97.53067 35822 ft 512 kts 194°
2026-04-24 02:17 25.67068 -97.53476 35832 ft 519 kts 192°
2026-04-24 02:17 25.59866 -97.54170 35829 ft 514 kts 192°
2026-04-24 02:18 25.52713 -97.54869 35823 ft 517 kts 192°
2026-04-24 02:18 25.45547 -97.55576 35817 ft 516 kts 192°
2026-04-24 02:19 25.38404 -97.56287 35814 ft 516 kts 192°
2026-04-24 02:19 25.31223 -97.57062 35811 ft 514 kts 193°
2026-04-24 02:20 25.24123 -97.57926 35815 ft 514 kts 193°
2026-04-24 02:20 25.16973 -97.58794 35823 ft 515 kts 193°
2026-04-24 02:21 25.09868 -97.59651 35826 ft 515 kts 193°
2026-04-24 02:21 25.02673 -97.60451 35826 ft 516 kts 192°
2026-04-24 02:22 24.95530 -97.61128 35824 ft 518 kts 191°
2026-04-24 02:22 24.88348 -97.61810 35822 ft 516 kts 192°
2026-04-24 02:23 24.81173 -97.62496 35816 ft 514 kts 191°
2026-04-24 02:23 24.73994 -97.63184 35815 ft 517 kts 191°
2026-04-24 02:24 24.66866 -97.63867 35818 ft 515 kts 191°
2026-04-24 02:24 24.59696 -97.64555 35817 ft 515 kts 191°
2026-04-24 02:25 24.52513 -97.65243 35830 ft 517 kts 191°
2026-04-24 02:25 24.45345 -97.65929 35829 ft 516 kts 191°
2026-04-24 02:26 24.38160 -97.66615 35828 ft 517 kts 191°
2026-04-24 02:26 24.30967 -97.67303 35827 ft 518 kts 191°
2026-04-24 02:27 24.23797 -97.67986 35829 ft 517 kts 191°
2026-04-24 02:27 24.16603 -97.68672 35828 ft 517 kts 191°
2026-04-24 02:28 24.09451 -97.69353 35830 ft 516 kts 190°
2026-04-24 02:28 24.02328 -97.70029 35831 ft 514 kts 190°
2026-04-24 02:29 23.95140 -97.70713 35832 ft 517 kts 190°
2026-04-24 02:29 23.87951 -97.71395 35823 ft 516 kts 190°
2026-04-24 02:30 23.80769 -97.72076 35825 ft 517 kts 190°
2026-04-24 02:30 23.73577 -97.72756 35825 ft 517 kts 190°
2026-04-24 02:31 23.66443 -97.73431 35829 ft 517 kts 190°
2026-04-24 02:31 23.59269 -97.74107 35829 ft 515 kts 190°
2026-04-24 02:32 23.52071 -97.74787 35833 ft 517 kts 189°
2026-04-24 02:32 23.44916 -97.75462 35837 ft 515 kts 189°
2026-04-24 02:33 23.37754 -97.76136 35838 ft 517 kts 189°
2026-04-24 02:33 23.30609 -97.76807 35845 ft 516 kts 189°
2026-04-24 02:34 23.23416 -97.77483 35849 ft 517 kts 189°
2026-04-24 02:34 23.16243 -97.78156 35850 ft 516 kts 189°
2026-04-24 02:35 23.09123 -97.78825 35853 ft 515 kts 189°
2026-04-24 02:35 23.01959 -97.79498 35856 ft 516 kts 189°
2026-04-24 02:36 22.94791 -97.80170 35858 ft 515 kts 189°
2026-04-24 02:36 22.87622 -97.80841 35840 ft 515 kts 189°
2026-04-24 02:37 22.80475 -97.81510 35842 ft 516 kts 189°
2026-04-24 02:37 22.73283 -97.82182 35838 ft 514 kts 189°
2026-04-24 02:38 22.66117 -97.82851 35835 ft 517 kts 189°
2026-04-24 02:38 22.58967 -97.83516 35836 ft 516 kts 189°
2026-04-24 02:39 22.51827 -97.84180 35838 ft 517 kts 189°
2026-04-24 02:39 22.44627 -97.84849 35837 ft 514 kts 189°
2026-04-24 02:40 22.37511 -97.85510 35835 ft 516 kts 189°
2026-04-24 02:40 22.30341 -97.86176 35835 ft 515 kts 189°
2026-04-24 02:41 22.23314 -97.87444 35835 ft 512 kts 195°
2026-04-24 02:41 22.16299 -97.88893 35837 ft 510 kts 195°
2026-04-24 02:42 22.09311 -97.90334 35828 ft 511 kts 195°
2026-04-24 02:42 22.02336 -97.91768 35822 ft 511 kts 195°
2026-04-24 02:43 21.95311 -97.93208 35812 ft 510 kts 195°
2026-04-24 02:43 21.88329 -97.94640 35806 ft 512 kts 195°
2026-04-24 02:44 21.81302 -97.96076 35805 ft 511 kts 195°
2026-04-24 02:44 21.74302 -97.97507 35807 ft 511 kts 195°
2026-04-24 02:45 21.67334 -97.98930 35816 ft 513 kts 195°
2026-04-24 02:45 21.60294 -98.00365 35824 ft 512 kts 195°
2026-04-24 02:46 21.53304 -98.01789 35832 ft 513 kts 195°
2026-04-24 02:46 21.46286 -98.03217 35843 ft 513 kts 195°
2026-04-24 02:47 21.39260 -98.04644 35845 ft 511 kts 195°
2026-04-24 02:47 21.32231 -98.06072 35847 ft 513 kts 194°
2026-04-24 02:48 21.25240 -98.07489 35856 ft 512 kts 194°
2026-04-24 02:48 21.18246 -98.08906 35862 ft 513 kts 194°
2026-04-24 02:49 21.11213 -98.10329 35865 ft 513 kts 194°
2026-04-24 02:49 21.04173 -98.11753 35848 ft 513 kts 194°
2026-04-24 02:50 20.97171 -98.13168 35874 ft 513 kts 194°
2026-04-24 02:50 20.90136 -98.14587 35895 ft 512 kts 194°
2026-04-24 02:51 20.83074 -98.16010 35908 ft 511 kts 194°
2026-04-24 02:51 20.76101 -98.17412 35960 ft 511 kts 194°
2026-04-24 02:52 20.69123 -98.18813 35983 ft 511 kts 194°
2026-04-24 02:52 20.67555 -98.19128 35988 ft 511 kts 194°
2026-04-24 02:54 20.63307 -98.19980 35808 ft 513 kts 194°
2026-04-24 02:54 20.59791 -98.20685 35403 ft 513 kts 194°
2026-04-24 02:54 20.56292 -98.21386 34996 ft 511 kts 194°
2026-04-24 02:55 20.52832 -98.22079 34594 ft 511 kts 194°
2026-04-24 02:55 20.49317 -98.22783 34175 ft 513 kts 194°
2026-04-24 02:55 20.45795 -98.23489 33401 ft 520 kts 194°
2026-04-24 02:55 20.42231 -98.24202 32570 ft 521 kts 194°
2026-04-24 02:56 20.38635 -98.24921 31747 ft 522 kts 193°
2026-04-24 02:56 20.35068 -98.25633 30933 ft 522 kts 193°
2026-04-24 02:56 20.31508 -98.26344 30123 ft 522 kts 193°
2026-04-24 02:56 20.27964 -98.27058 29318 ft 521 kts 194°
2026-04-24 02:57 20.24498 -98.28101 28540 ft 516 kts 203°
2026-04-24 02:57 20.21216 -98.29666 27766 ft 511 kts 212°
2026-04-24 02:57 20.18263 -98.31673 27007 ft 506 kts 220°
2026-04-24 02:57 20.15626 -98.34115 26244 ft 500 kts 229°
2026-04-24 02:58 20.13414 -98.36909 25686 ft 489 kts 238°
2026-04-24 02:58 20.11696 -98.39917 25444 ft 472 kts 246°
2026-04-24 02:58 20.10429 -98.43102 25306 ft 453 kts 255°
2026-04-24 02:58 20.09641 -98.46233 25247 ft 434 kts 262°
2026-04-24 02:59 20.09265 -98.49339 25194 ft 415 kts 270°
2026-04-24 02:59 20.09354 -98.52335 24874 ft 405 kts 279°
2026-04-24 02:59 20.09928 -98.55273 24132 ft 405 kts 290°
2026-04-24 02:59 20.10978 -98.58013 23385 ft 405 kts 299°
2026-04-24 03:00 20.12487 -98.60523 22635 ft 406 kts 309°
2026-04-24 03:00 20.14413 -98.62717 21818 ft 399 kts 320°
2026-04-24 03:00 20.16589 -98.64435 21135 ft 391 kts 324°
2026-04-24 03:00 20.18583 -98.66363 20421 ft 384 kts 307°
2026-04-24 03:01 20.19825 -98.68829 19721 ft 378 kts 287°
2026-04-24 03:01 20.20192 -98.71558 19019 ft 374 kts 267°
2026-04-24 03:01 20.19649 -98.74233 18318 ft 371 kts 247°
2026-04-24 03:01 20.18285 -98.76507 17624 ft 369 kts 227°
2026-04-24 03:02 20.16242 -98.78130 16972 ft 366 kts 206°
2026-04-24 03:02 20.13829 -98.78931 16356 ft 362 kts 193°
2026-04-24 03:02 20.11359 -98.79389 15740 ft 357 kts 191°
2026-04-24 03:02 20.08934 -98.79794 15129 ft 353 kts 191°
2026-04-24 03:03 20.06512 -98.80190 14518 ft 349 kts 191°
2026-04-24 03:03 20.04141 -98.80571 13923 ft 346 kts 191°
2026-04-24 03:03 20.01750 -98.80954 13318 ft 343 kts 191°
2026-04-24 03:03 19.99394 -98.81331 12722 ft 340 kts 190°
2026-04-24 03:04 19.97080 -98.81710 12112 ft 338 kts 190°
2026-04-24 03:04 19.94754 -98.82101 11484 ft 336 kts 191°
2026-04-24 03:04 19.92455 -98.82500 10917 ft 331 kts 193°
2026-04-24 03:04 19.90351 -98.83268 10695 ft 312 kts 213°
2026-04-24 03:05 19.88731 -98.84705 10700 ft 292 kts 228°
2026-04-24 03:05 19.87415 -98.86259 10653 ft 277 kts 231°
2026-04-24 03:05 19.86202 -98.87827 10288 ft 272 kts 233°
2026-04-24 03:05 19.85047 -98.89387 9960 ft 261 kts 234°
2026-04-24 03:06 19.84012 -98.90849 9680 ft 237 kts 236°
2026-04-24 03:06 19.83048 -98.92207 9417 ft 221 kts 233°
2026-04-24 03:06 19.82098 -98.93419 9142 ft 206 kts 230°
2026-04-24 03:06 19.81189 -98.94515 8900 ft 187 kts 230°
2026-04-24 03:07 19.80371 -98.95506 8669 ft 174 kts 229°
2026-04-24 03:07 19.79589 -98.96461 8395 ft 169 kts 228°
2026-04-24 03:07 19.78825 -98.97382 8122 ft 165 kts 227°
2026-04-24 03:07 19.78067 -98.98294 7911 ft 163 kts 227°
2026-04-24 03:08 19.77321 -98.99194 7740 ft 163 kts 228°
2026-04-24 03:08 19.75822 -99.01017 7386 ft 158 kts 227°
2026-04-24 03:08 19.75182 -99.01798 7385 ft 119 kts 229°
2026-04-24 03:09 19.74738 -99.02341 7383 ft 75 kts 229°
2026-04-24 03:09 19.74451 -99.02692 7382 ft 55 kts 229°
2026-04-24 03:09 19.74229 -99.02963 7380 ft 28 kts 229°
2026-04-24 03:09 19.74130 -99.03085 7380 ft 10 kts 229°
2026-04-24 03:10 19.74096 -99.03114 7380 ft 2 kts 202°
2026-04-24 03:10 19.74083 -99.03117 7380 ft 2 kts 184°